TimeEST,TemperatureF,Dew PointF,Humidity,Sea Level PressureIn,VisibilityMPH,Wind Direction,Wind SpeedMPH,Gust SpeedMPH,PrecipitationIn,Events,Conditions,WindDirDegrees,DateUTC
12:54 AM,35.1,24.1,64,30.02,10.0,ESE,13.8,32.2,N/A,,Mostly Cloudy,110,2013-02-27 05:54:00
1:54 AM,35.1,23.0,61,30.03,10.0,East,10.4,18.4,0.00,,Overcast,100,2013-02-27 06:54:00
2:33 AM,33.8,26.6,75,30.00,2.5,East,11.5,20.7,0.00,Snow,Light Snow,90,2013-02-27 07:33:00
2:39 AM,32.0,26.6,80,30.00,0.8,East,10.4,18.4,0.01,Snow,Light Snow,90,2013-02-27 07:39:00
2:50 AM,32.0,28.4,87,29.99,0.8,East,8.1,17.3,0.02,Snow,Light Snow,100,2013-02-27 07:50:00
2:54 AM,33.1,28.0,82,30.01,1.2,ENE,8.1,19.6,0.02,Snow,Light Snow,70,2013-02-27 07:54:00
3:13 AM,32.0,28.4,87,29.95,0.5,Variable,5.8,19.6,0.03,Fog-Snow,Light Snow,0,2013-02-27 08:13:00
3:25 AM,33.8,28.4,81,29.94,1.0,SE,3.5,-,0.04,Snow,Light Snow,130,2013-02-27 08:25:00
3:33 AM,33.8,28.4,81,29.93,1.2,Variable,5.8,17.3,0.04,Snow,Light Snow,0,2013-02-27 08:33:00
3:54 AM,33.1,28.9,85,29.95,1.2,ESE,10.4,18.4,0.05,Snow,Light Snow,110,2013-02-27 08:54:00
4:02 AM,33.8,28.4,81,29.92,1.5,East,9.2,27.6,0.00,Snow,Light Snow,100,2013-02-27 09:02:00
4:13 AM,33.8,28.4,81,29.91,2.0,East,11.5,26.5,0.01,Snow,Light Snow,100,2013-02-27 09:13:00
4:25 AM,33.8,28.4,81,29.91,4.0,East,11.5,21.9,0.01,Snow,Light Snow,100,2013-02-27 09:25:00
4:33 AM,35.6,26.6,70,29.90,7.0,East,9.2,26.5,0.01,Snow,Light Snow,90,2013-02-27 09:33:00
4:54 AM,35.1,27.0,72,29.90,3.0,ESE,12.7,26.5,0.01,Snow,Light Snow,110,2013-02-27 09:54:00
5:03 AM,35.6,28.4,75,29.87,2.0,ESE,16.1,28.8,0.00,Snow,Light Snow,110,2013-02-27 10:03:00
5:21 AM,35.6,26.6,70,29.87,4.0,East,18.4,32.2,0.00,Snow,Light Snow,100,2013-02-27 10:21:00
5:54 AM,36.0,28.0,73,29.85,6.0,ESE,20.7,35.7,0.01,Snow,Light Snow,110,2013-02-27 10:54:00
6:54 AM,37.9,28.0,68,29.81,10.0,ESE,23.0,42.6,0.00,,Overcast,110,2013-02-27 11:54:00
7:54 AM,37.0,30.0,76,29.78,5.0,East,23.0,41.4,0.02,,Overcast,100,2013-02-27 12:54:00
8:54 AM,39.0,30.9,73,29.77,5.0,East,13.8,36.8,0.04,Rain,Light Rain,100,2013-02-27 13:54:00
10:54 AM,39.0,33.1,79,29.70,8.0,Variable,6.9,16.1,0.04,Rain,Light Rain,0,2013-02-27 15:54:00
11:54 AM,39.9,32.0,73,29.65,4.0,ESE,16.1,29.9,0.03,Rain,Light Rain,110,2013-02-27 16:54:00
12:33 PM,39.2,32.0,75,29.61,2.5,SE,18.4,39.1,0.03,Rain,Rain,130,2013-02-27 17:33:00
12:41 PM,39.2,33.8,81,29.60,2.5,SE,15.0,39.1,0.04,Rain,Light Rain,130,2013-02-27 17:41:00
12:49 PM,39.2,33.8,81,29.60,6.0,SE,18.4,39.1,0.04,Rain,Light Rain,130,2013-02-27 17:49:00
12:54 PM,39.9,33.1,77,29.61,9.0,SE,15.0,31.1,0.04,Rain,Light Rain,130,2013-02-27 17:54:00
1:02 PM,41.0,33.8,76,29.59,9.0,ESE,19.6,31.1,0.00,,Overcast,120,2013-02-27 18:02:00
1:23 PM,42.8,33.8,70,29.60,10.0,SSE,20.7,34.5,0.00,,Overcast,150,2013-02-27 18:23:00
1:54 PM,41.0,32.0,70,29.60,8.0,SSE,17.3,41.4,0.00,,Overcast,150,2013-02-27 18:54:00
2:54 PM,39.0,32.0,76,29.59,5.0,SE,16.1,32.2,0.01,Rain,Light Rain,140,2013-02-27 19:54:00
3:02 PM,39.2,32.0,75,29.57,6.0,SSE,19.6,34.5,0.00,Rain,Light Rain,150,2013-02-27 20:02:00
3:43 PM,39.2,30.2,70,29.57,10.0,SSE,23.0,49.5,0.01,,Overcast,150,2013-02-27 20:43:00
3:54 PM,39.0,30.9,73,29.60,10.0,SE,21.9,36.8,0.01,,Overcast,130,2013-02-27 20:54:00
4:25 PM,37.4,30.2,75,29.57,6.0,Variable,5.8,23.0,N/A,,Haze,0,2013-02-27 21:25:00
4:54 PM,37.9,30.9,76,29.57,10.0,SSE,16.1,24.2,N/A,,Overcast,160,2013-02-27 21:54:00
5:21 PM,37.4,30.2,75,29.57,10.0,South,11.5,27.6,N/A,,Overcast,170,2013-02-27 22:21:00
5:29 PM,37.4,30.2,75,29.58,10.0,SSE,16.1,26.5,N/A,,Overcast,150,2013-02-27 22:29:00
5:47 PM,37.4,30.2,75,29.57,10.0,SE,17.3,25.3,N/A,,Overcast,140,2013-02-27 22:47:00
5:54 PM,37.0,28.9,73,29.58,10.0,SSE,13.8,25.3,N/A,,Overcast,150,2013-02-27 22:54:00
6:33 PM,37.4,30.2,75,29.55,10.0,SSE,18.4,33.4,N/A,,Overcast,150,2013-02-27 23:33:00
6:54 PM,37.0,30.0,76,29.58,10.0,SSE,10.4,28.8,N/A,,Overcast,150,2013-02-27 23:54:00
7:42 PM,37.4,28.4,70,29.56,10.0,East,24.2,39.1,N/A,,Overcast,80,2013-02-28 00:42:00
7:54 PM,37.0,28.9,73,29.58,10.0,ESE,19.6,36.8,N/A,,Overcast,110,2013-02-28 00:54:00
9:54 PM,37.0,27.0,67,29.60,10.0,East,10.4,-,N/A,,Overcast,90,2013-02-28 02:54:00
10:54 PM,37.0,27.0,67,29.61,10.0,ESE,8.1,18.4,N/A,,Overcast,120,2013-02-28 03:54:00
11:54 PM,36.0,27.0,70,29.61,10.0,SE,5.8,-,N/A,,Overcast,130,2013-02-28 04:54:00